Weather History for Frankfort, KY

Change the Weather History Date:

Saturday, September 13, 2014

  Actual Average Record
Temperature  
Mean Temperature 58 °F 69 °F  
Max Temperature 68 °F 81 °F 101 °F (1939)
Min Temperature 48 °F 57 °F 42 °F (1953)
Degree Days  
Heating Degree Days 7 1  
Month to date heating degree days 10 4  
Since 1 July heating degree days 13 5  
Cooling Degree Days 0 5  
Month to date cooling degree days 100 83  
Year to date cooling degree days 1026 1085  
Growing Degree Days 8 (Base 50)    
Moisture  
Dew Point 51 °F    
Average Humidity 71    
Maximum Humidity 93    
Minimum Humidity 48    
Precipitation  
Precipitation 0.00 in 0.13 in 1.60 in (1947)
Month to date precipitation 2.74 1.53  
Year to date precipitation 36.03 32.84  
Sea Level Pressure  
Sea Level Pressure 30.23 in    
Wind  
Wind Speed 6 mph (NNW)    
Max Wind Speed 14 mph    
Max Gust Speed 20 mph    
Visibility 10 miles    
Events      
T = Trace of Precipitation, MM = Missing Value Source: NWS Daily Summary

Daily Weather History Graph

Daily Weather History Graph

Search for Another Location

Airport:

Trip Planner

Search our weather history database for the weather conditions in past years. The results will help you decide how hot, cold, wet, or windy it might be!

Date:

Astronomy

Sep. 13, 2014 Rise Set
Actual Time 7:19 AM EDT 7:50 PM EDT
Civil Twilight 6:53 AM EDT 8:17 PM EDT
Nautical Twilight 6:21 AM EDT 8:48 PM EDT
Astronomical Twilight 5:49 AM EDT 9:20 PM EDT
Moon 11:00 PM EDT (9/13) 12:21 PM EDT (9/13)
Length of Visible Light 13h 24m
Length of Day
12h 31m
Waning Gibbous, 74% of the Moon is Illuminated
Sep 13
Waning Gibbous
Sep 15
Last Quarter
Sep 24
New
Oct 1
First Quarter
Oct 8
Full

Hourly Weather History & Observations

Time (EDT) Temp. Dew Point Humidity Pressure Visibility Wind Dir Wind Speed Gust Speed Precip Events Conditions
12:53 AM 61.0 °F 57.0 °F 87% 30.12 in 9.0 mi NNW 3.5 mph - N/A   Overcast
1:53 AM 61.0 °F 57.0 °F 87% 30.12 in 9.0 mi NW 4.6 mph - N/A   Overcast
2:53 AM 61.0 °F 57.0 °F 87% 30.11 in 9.0 mi NW 4.6 mph - N/A   Overcast
3:53 AM 60.1 °F 57.0 °F 90% 30.12 in 9.0 mi NNW 4.6 mph - N/A   Overcast
4:53 AM 60.1 °F 55.0 °F 83% 30.13 in 10.0 mi NW 4.6 mph - N/A   Overcast
5:30 AM 60.1 °F 55.0 °F 83% 30.15 in 10.0 mi WNW 3.5 mph - N/A   Overcast
5:53 AM 60.1 °F 55.9 °F 86% 30.14 in 10.0 mi WNW 3.5 mph - N/A   Overcast
6:53 AM 60.1 °F 55.0 °F 83% 30.17 in 10.0 mi NW 11.5 mph 20.7 mph N/A   Overcast
7:53 AM 59.0 °F 54.0 °F 83% 30.20 in 10.0 mi NW 8.1 mph - N/A   Overcast
8:30 AM 57.9 °F 53.1 °F 84% 30.22 in 10.0 mi NNW 5.8 mph - N/A   Overcast
8:43 AM 57.9 °F 53.1 °F 84% 30.23 in 10.0 mi NNW 9.2 mph - N/A   Overcast
8:53 AM 57.9 °F 53.1 °F 84% 30.22 in 10.0 mi NNW 12.7 mph 19.6 mph N/A   Overcast
9:41 AM 59.0 °F 53.1 °F 81% 30.25 in 10.0 mi NNW 6.9 mph - N/A   Overcast
9:53 AM 60.1 °F 53.1 °F 78% 30.25 in 10.0 mi NNW 10.4 mph - N/A   Mostly Cloudy
10:13 AM 59.0 °F 51.1 °F 75% 30.26 in 10.0 mi NW 12.7 mph - N/A   Overcast
10:53 AM 57.9 °F 51.1 °F 78% 30.27 in 10.0 mi NNW 9.2 mph - N/A   Overcast
11:04 AM 59.0 °F 51.1 °F 75% 30.28 in 10.0 mi NNW 10.4 mph - N/A   Overcast
11:19 AM 57.9 °F 51.1 °F 78% 30.28 in 10.0 mi NW 9.2 mph - N/A   Overcast
11:53 AM 57.0 °F 50.0 °F 77% 30.28 in 10.0 mi NW 11.5 mph - N/A   Overcast
12:53 PM 59.0 °F 48.9 °F 69% 30.29 in 10.0 mi NNW 8.1 mph - N/A   Overcast
1:22 PM 61.0 °F 48.9 °F 64% 30.30 in 10.0 mi Variable 6.9 mph - N/A   Overcast
1:53 PM 61.0 °F 48.0 °F 62% 30.29 in 10.0 mi NNW 10.4 mph - N/A   Overcast
2:53 PM 62.1 °F 46.9 °F 58% 30.27 in 10.0 mi NNW 9.2 mph - N/A   Mostly Cloudy
3:53 PM 66.0 °F 46.0 °F 48% 30.26 in 10.0 mi North - - N/A   Mostly Cloudy
4:53 PM 64.9 °F 46.0 °F 50% 30.25 in 10.0 mi NW 4.6 mph - N/A   Scattered Clouds
5:53 PM 66.0 °F 46.9 °F 50% 30.25 in 10.0 mi NNW 6.9 mph - N/A   Clear
6:53 PM 64.9 °F 46.9 °F 52% 30.25 in 10.0 mi NNW 3.5 mph - N/A   Clear
7:53 PM 60.1 °F 50.0 °F 69% 30.26 in 10.0 mi North 3.5 mph - N/A   Clear
8:53 PM 55.0 °F 50.0 °F 83% 30.27 in 10.0 mi Calm Calm - N/A   Clear
9:53 PM 53.1 °F 48.9 °F 86% 30.28 in 10.0 mi Calm Calm - N/A   Partly Cloudy
10:53 PM 51.1 °F 48.0 °F 89% 30.29 in 10.0 mi Calm Calm - N/A   Clear
11:53 PM 50.0 °F 48.0 °F 93% 30.30 in 10.0 mi NNW 4.6 mph - N/A   Clear